Location: Lafig�re
(44.4503°N, 4.0357°E)
Time: 00:53:51
(UTC+00:00)

Transit 4A - Pass Details

Date: 25 January 2021
Orbit: 866 x 979 km, 66.8° (Epoch: 24 February)

Event Time Altitude Azimuth Distance (km) Brightness Sun altitude
Rises 17:47:23 0° 190° (S) 3,655 11.4 -11.5°
Reaches altitude 10° 17:50:01 10° 184° (S) 2,717 10.6 -11.9°
Maximum altitude 17:56:03 46° 113° (ESE) 1,286 8.3 -13.0°
Enters shadow 18:01:25 13° 44° (NE) 2,490 9.6 -13.9°
Drops below altitude 10° 18:02:06 10° 42° (NE) 2,723 - -14.0°
Sets 18:04:44 0° 37° (NE) 3,664 - -14.5°
